Time,TemperatureF,DewpointF,PressureIn,WindDirection,WindDirectionDegrees,WindSpeedMPH,WindSpeedGustMPH,Humidity,HourlyPrecipIn,Conditions,Clouds,dailyrainin,SoftwareType,DateUTC
2016-12-10 00:01:00,30.1,26.0,30.07,NE,45,2.0,-999.0,86,0.00,,,0.00,,2016-12-10 08:01:00,
2016-12-10 00:07:00,30.1,26.0,30.06,NNE,23,2.0,-999.0,86,0.00,,,0.00,,2016-12-10 08:07:00,
2016-12-10 00:12:00,30.1,26.0,30.07,NNE,23,0.0,-999.0,86,0.00,,,0.00,,2016-12-10 08:12:00,
2016-12-10 00:18:00,30.1,26.0,30.07,South,180,0.0,-999.0,86,0.00,,,0.00,,2016-12-10 08:18:00,
2016-12-10 00:23:00,30.1,26.0,30.06,ENE,68,0.0,-999.0,86,0.00,,,0.00,,2016-12-10 08:23:00,
2016-12-10 00:28:00,30.1,26.0,30.06,NNE,23,0.0,-999.0,86,0.00,,,0.00,,2016-12-10 08:28:00,
2016-12-10 00:34:00,30.1,26.0,30.06,NW,315,2.0,-999.0,86,0.00,,,0.00,,2016-12-10 08:34:00,
2016-12-10 00:39:00,30.1,26.0,30.07,NW,315,3.0,-999.0,86,0.00,,,0.00,,2016-12-10 08:39:00,
2016-12-10 00:45:00,30.1,26.0,30.07,North,0,2.0,-999.0,86,0.00,,,0.00,,2016-12-10 08:45:00,
2016-12-10 00:50:00,30.1,26.0,30.08,NNE,23,2.0,-999.0,86,0.00,,,0.00,,2016-12-10 08:50:00,
2016-12-10 00:55:00,30.0,26.0,30.07,NNE,23,3.0,-999.0,86,0.00,,,0.00,,2016-12-10 08:55:00,
2016-12-10 01:01:00,30.0,26.0,30.08,NE,45,3.0,-999.0,86,0.00,,,0.00,,2016-12-10 09:01:00,
2016-12-10 01:06:00,29.8,26.0,30.07,NNE,23,3.0,-999.0,86,0.00,,,0.00,,2016-12-10 09:06:00,
2016-12-10 01:11:00,29.8,26.0,30.07,North,0,1.0,-999.0,86,0.00,,,0.00,,2016-12-10 09:11:00,
2016-12-10 01:17:00,29.6,26.0,30.07,NNE,23,1.0,-999.0,86,0.00,,,0.00,,2016-12-10 09:17:00,
2016-12-10 01:22:00,29.6,26.0,30.07,NE,45,1.0,-999.0,86,0.00,,,0.00,,2016-12-10 09:22:00,
2016-12-10 01:28:00,29.6,26.0,30.06,ENE,68,1.0,-999.0,86,0.00,,,0.00,,2016-12-10 09:28:00,
2016-12-10 01:33:00,29.6,26.0,30.07,NW,315,3.0,-999.0,86,0.00,,,0.00,,2016-12-10 09:33:00,
2016-12-10 01:39:00,29.6,26.0,30.07,NNE,23,1.0,-999.0,86,0.00,,,0.00,,2016-12-10 09:39:00,
2016-12-10 01:44:00,29.6,26.0,30.07,WNW,293,1.0,-999.0,86,0.00,,,0.00,,2016-12-10 09:44:00,
2016-12-10 01:50:00,29.6,26.0,30.06,ENE,68,0.0,-999.0,86,0.00,,,0.00,,2016-12-10 09:50:00,
2016-12-10 01:55:00,29.6,26.0,30.07,East,90,0.0,-999.0,86,0.00,,,0.00,,2016-12-10 09:55:00,
2016-12-10 02:01:00,29.6,26.0,30.07,NW,315,0.0,-999.0,86,0.00,,,0.00,,2016-12-10 10:01:00,
2016-12-10 02:06:00,29.6,26.0,30.07,NE,45,2.0,-999.0,86,0.00,,,0.00,,2016-12-10 10:06:00,
2016-12-10 02:11:00,29.6,26.0,30.07,NNW,338,3.0,-999.0,86,0.00,,,0.00,,2016-12-10 10:11:00,
2016-12-10 02:18:00,29.2,25.0,30.08,NE,45,2.0,-999.0,86,0.00,,,0.00,,2016-12-10 10:18:00,
2016-12-10 02:23:00,29.2,25.0,30.08,NNW,338,2.0,-999.0,86,0.00,,,0.00,,2016-12-10 10:23:00,
2016-12-10 02:29:00,29.2,25.0,30.07,NE,45,2.0,-999.0,86,0.00,,,0.00,,2016-12-10 10:29:00,
2016-12-10 02:34:00,29.2,25.0,30.08,NW,315,2.0,-999.0,86,0.00,,,0.00,,2016-12-10 10:34:00,
2016-12-10 02:39:00,29.2,25.0,30.07,East,90,1.0,-999.0,86,0.00,,,0.00,,2016-12-10 10:39:00,
2016-12-10 02:45:00,29.2,25.0,30.07,NNE,23,0.0,-999.0,86,0.00,,,0.00,,2016-12-10 10:45:00,
2016-12-10 02:50:00,29.2,25.0,30.08,North,0,2.0,-999.0,86,0.00,,,0.00,,2016-12-10 10:50:00,
2016-12-10 02:55:00,29.2,25.0,30.08,WNW,293,2.0,-999.0,86,0.00,,,0.00,,2016-12-10 10:55:00,
2016-12-10 03:01:00,29.2,25.0,30.08,NNE,23,1.0,-999.0,86,0.00,,,0.00,,2016-12-10 11:01:00,
2016-12-10 03:06:00,29.2,25.0,30.08,NE,45,2.0,-999.0,86,0.00,,,0.00,,2016-12-10 11:06:00,
2016-12-10 03:12:00,29.2,25.0,30.08,NNW,338,0.0,-999.0,86,0.00,,,0.00,,2016-12-10 11:12:00,
2016-12-10 03:17:00,29.2,25.0,30.08,NNE,23,1.0,-999.0,86,0.00,,,0.00,,2016-12-10 11:17:00,
2016-12-10 03:22:00,29.2,25.0,30.07,ENE,68,0.0,-999.0,86,0.00,,,0.00,,2016-12-10 11:22:00,
2016-12-10 03:28:00,29.1,25.0,30.08,NE,45,0.0,-999.0,86,0.00,,,0.00,,2016-12-10 11:28:00,
2016-12-10 03:33:00,29.1,25.0,30.08,NNE,23,1.0,-999.0,86,0.00,,,0.00,,2016-12-10 11:33:00,
2016-12-10 03:39:00,28.8,25.0,30.07,NNE,23,0.0,-999.0,86,0.00,,,0.00,,2016-12-10 11:39:00,
2016-12-10 03:44:00,28.7,25.0,30.08,ENE,68,0.0,-999.0,86,0.00,,,0.00,,2016-12-10 11:44:00,
2016-12-10 03:49:00,28.7,25.0,30.07,NE,45,2.0,-999.0,86,0.00,,,0.00,,2016-12-10 11:49:00,
2016-12-10 03:55:00,28.7,25.0,30.08,ESE,113,1.0,-999.0,86,0.00,,,0.00,,2016-12-10 11:55:00,
2016-12-10 04:01:00,28.7,25.0,30.08,NNE,23,2.0,-999.0,86,0.00,,,0.00,,2016-12-10 12:01:00,
2016-12-10 04:06:00,28.7,25.0,30.08,NNE,23,0.0,-999.0,86,0.00,,,0.00,,2016-12-10 12:06:00,
2016-12-10 04:12:00,28.7,25.0,30.08,East,90,1.0,-999.0,86,0.00,,,0.00,,2016-12-10 12:12:00,
2016-12-10 04:17:00,28.7,25.0,30.08,North,0,2.0,-999.0,86,0.00,,,0.00,,2016-12-10 12:17:00,
2016-12-10 04:23:00,28.3,24.0,30.08,ENE,68,0.0,-999.0,86,0.00,,,0.00,,2016-12-10 12:23:00,
2016-12-10 04:28:00,28.2,24.0,30.08,North,0,0.0,-999.0,86,0.00,,,0.00,,2016-12-10 12:28:00,
2016-12-10 04:34:00,27.8,24.0,30.08,North,0,0.0,-999.0,86,0.00,,,0.00,,2016-12-10 12:34:00,
2016-12-10 04:39:00,27.6,24.0,30.08,North,0,2.0,-999.0,86,0.00,,,0.00,,2016-12-10 12:39:00,
2016-12-10 04:45:00,27.6,24.0,30.09,NNW,338,2.0,-999.0,86,0.00,,,0.00,,2016-12-10 12:45:00,
2016-12-10 04:50:00,27.3,23.0,30.09,West,270,1.0,-999.0,86,0.00,,,0.00,,2016-12-10 12:50:00,
2016-12-10 04:55:00,27.3,23.0,30.09,NE,45,0.0,-999.0,86,0.00,,,0.00,,2016-12-10 12:55:00,
2016-12-10 05:01:00,27.3,23.0,30.08,NNW,338,3.0,-999.0,86,0.00,,,0.00,,2016-12-10 13:01:00,
2016-12-10 05:06:00,27.5,24.0,30.09,NNE,23,2.0,-999.0,86,0.00,,,0.00,,2016-12-10 13:06:00,
2016-12-10 05:12:00,27.6,24.0,30.09,North,0,2.0,-999.0,86,0.00,,,0.00,,2016-12-10 13:12:00,
2016-12-10 05:17:00,27.6,24.0,30.08,ENE,68,0.0,-999.0,86,0.00,,,0.00,,2016-12-10 13:17:00,
2016-12-10 05:22:00,27.6,24.0,30.09,SE,135,0.0,-999.0,86,0.00,,,0.00,,2016-12-10 13:22:00,
2016-12-10 05:28:00,27.6,24.0,30.09,SE,135,0.0,-999.0,86,0.00,,,0.00,,2016-12-10 13:28:00,
2016-12-10 05:33:00,27.6,24.0,30.09,SE,135,0.0,-999.0,86,0.00,,,0.00,,2016-12-10 13:33:00,
2016-12-10 05:44:00,27.5,24.0,30.08,ESE,113,0.0,-999.0,86,0.00,,,0.00,,2016-12-10 13:44:00,
2016-12-10 05:49:00,27.3,23.0,30.09,NW,315,0.0,-999.0,86,0.00,,,0.00,,2016-12-10 13:49:00,
2016-12-10 05:55:00,27.1,23.0,30.10,NNE,23,0.0,-999.0,86,0.00,,,0.00,,2016-12-10 13:55:00,
2016-12-10 06:00:00,27.1,23.0,30.09,North,0,0.0,-999.0,86,0.00,,,0.00,,2016-12-10 14:00:00,
2016-12-10 06:06:00,27.1,23.0,30.09,NNE,23,0.0,-999.0,86,0.00,,,0.00,,2016-12-10 14:06:00,
2016-12-10 06:12:00,27.1,23.0,30.09,East,90,0.0,-999.0,86,0.00,,,0.00,,2016-12-10 14:12:00,
2016-12-10 06:17:00,27.1,23.0,30.09,SE,135,0.0,-999.0,86,0.00,,,0.00,,2016-12-10 14:17:00,
2016-12-10 06:22:00,27.1,23.0,30.09,NE,45,0.0,-999.0,86,0.00,,,0.00,,2016-12-10 14:22:00,
2016-12-10 06:28:00,27.0,23.0,30.09,WNW,293,0.0,-999.0,86,0.00,,,0.00,,2016-12-10 14:28:00,
2016-12-10 06:34:00,26.7,23.0,30.10,NNE,23,0.0,-999.0,86,0.00,,,0.00,,2016-12-10 14:34:00,
2016-12-10 06:39:00,26.6,23.0,30.10,NNE,23,0.0,-999.0,86,0.00,,,0.00,,2016-12-10 14:39:00,
2016-12-10 06:45:00,26.6,23.0,30.10,NW,315,0.0,-999.0,86,0.00,,,0.00,,2016-12-10 14:45:00,
2016-12-10 06:50:00,26.6,23.0,30.10,SSE,158,0.0,-999.0,86,0.00,,,0.00,,2016-12-10 14:50:00,
2016-12-10 06:55:00,26.6,23.0,30.10,SW,225,0.0,-999.0,86,0.00,,,0.00,,2016-12-10 14:55:00,
2016-12-10 07:01:00,26.6,23.0,30.10,WSW,248,0.0,-999.0,86,0.00,,,0.00,,2016-12-10 15:01:00,
2016-12-10 07:06:00,26.6,23.0,30.10,WSW,248,0.0,-999.0,86,0.00,,,0.00,,2016-12-10 15:06:00,
2016-12-10 07:12:00,26.6,23.0,30.10,North,0,0.0,-999.0,86,0.00,,,0.00,,2016-12-10 15:12:00,
2016-12-10 07:17:00,27.0,23.0,30.10,North,0,1.0,-999.0,88,0.00,,,0.00,,2016-12-10 15:17:00,
2016-12-10 07:22:00,27.0,23.0,30.10,ENE,68,1.0,-999.0,88,0.00,,,0.00,,2016-12-10 15:22:00,
2016-12-10 07:28:00,27.0,23.0,30.10,NE,45,0.0,-999.0,88,0.00,,,0.00,,2016-12-10 15:28:00,
2016-12-10 07:33:00,26.7,23.0,30.10,ESE,113,1.0,-999.0,88,0.00,,,0.00,,2016-12-10 15:33:00,
2016-12-10 07:39:00,26.7,23.0,30.10,South,180,0.0,-999.0,88,0.00,,,0.00,,2016-12-10 15:39:00,
2016-12-10 07:44:00,27.0,23.0,30.11,NE,45,1.0,-999.0,88,0.00,,,0.00,,2016-12-10 15:44:00,
2016-12-10 07:49:00,27.0,23.0,30.11,South,180,0.0,-999.0,88,0.00,,,0.00,,2016-12-10 15:49:00,
2016-12-10 07:55:00,27.0,23.0,30.12,NNW,338,0.0,-999.0,88,0.00,,,0.00,,2016-12-10 15:55:00,
2016-12-10 08:00:00,27.5,24.0,30.12,NE,45,1.0,-999.0,88,0.00,,,0.00,,2016-12-10 16:00:00,
2016-12-10 08:06:00,27.5,24.0,30.12,NW,315,1.0,-999.0,88,0.00,,,0.00,,2016-12-10 16:06:00,
2016-12-10 08:11:00,27.9,24.0,30.12,NNE,23,1.0,-999.0,88,0.00,,,0.00,,2016-12-10 16:11:00,
2016-12-10 08:17:00,28.2,25.0,30.12,NNW,338,1.0,-999.0,88,0.00,,,0.00,,2016-12-10 16:17:00,
2016-12-10 08:23:00,-999.9,-99.9,30.12,NE,45,0.0,-999.0,-999,0.00,,,0.00,,2016-12-10 16:23:00,
2016-12-10 08:28:00,28.6,25.0,30.12,ENE,68,0.0,-999.0,88,0.00,,,0.00,,2016-12-10 16:28:00,
2016-12-10 08:34:00,28.7,25.0,30.11,ENE,68,0.0,-999.0,88,0.00,,,0.00,,2016-12-10 16:34:00,
2016-12-10 08:39:00,28.8,25.0,30.12,SE,135,0.0,-999.0,88,0.00,,,0.00,,2016-12-10 16:39:00,
2016-12-10 08:50:00,29.2,26.0,30.11,SE,135,0.0,-999.0,88,0.00,,,0.00,,2016-12-10 16:50:00,
2016-12-10 08:56:00,29.5,26.0,30.11,East,90,0.0,-999.0,88,0.00,,,0.00,,2016-12-10 16:56:00,
2016-12-10 09:01:00,29.6,26.0,30.11,NE,45,0.0,-999.0,88,0.00,,,0.00,,2016-12-10 17:01:00,
2016-12-10 09:07:00,29.8,26.0,30.12,NE,45,0.0,-999.0,88,0.00,,,0.00,,2016-12-10 17:07:00,
2016-12-10 09:12:00,30.0,26.0,30.10,NE,45,0.0,-999.0,88,0.00,,,0.00,,2016-12-10 17:12:00,
2016-12-10 09:17:00,30.1,27.0,30.10,East,90,0.0,-999.0,88,0.00,,,0.00,,2016-12-10 17:17:00,
2016-12-10 09:23:00,30.1,27.0,30.10,ESE,113,0.0,-999.0,88,0.00,,,0.00,,2016-12-10 17:23:00,
2016-12-10 09:28:00,30.5,27.0,30.11,NE,45,0.0,-999.0,88,0.00,,,0.00,,2016-12-10 17:28:00,
2016-12-10 09:34:00,30.5,27.0,30.10,South,180,0.0,-999.0,88,0.00,,,0.00,,2016-12-10 17:34:00,
2016-12-10 09:39:00,30.8,27.0,30.11,NNW,338,0.0,-999.0,88,0.00,,,0.00,,2016-12-10 17:39:00,
2016-12-10 09:44:00,30.8,27.0,30.11,North,0,1.0,-999.0,86,0.00,,,0.00,,2016-12-10 17:44:00,
2016-12-10 09:50:00,31.1,27.0,30.09,NNE,23,2.0,-999.0,86,0.00,,,0.00,,2016-12-10 17:50:00,
2016-12-10 09:55:00,31.2,27.0,30.10,NNE,23,1.0,-999.0,86,0.00,,,0.00,,2016-12-10 17:55:00,
2016-12-10 10:01:00,31.5,27.0,30.10,NE,45,0.0,-999.0,86,0.00,,,0.00,,2016-12-10 18:01:00,
2016-12-10 10:06:00,31.5,27.0,30.11,NW,315,0.0,-999.0,86,0.00,,,0.00,,2016-12-10 18:06:00,
2016-12-10 10:11:00,31.5,27.0,30.12,NNW,338,1.0,-999.0,86,0.00,,,0.00,,2016-12-10 18:11:00,
2016-12-10 10:17:00,31.6,27.0,30.10,NNW,338,1.0,-999.0,85,0.00,,,0.00,,2016-12-10 18:17:00,
2016-12-10 10:22:00,31.7,27.0,30.12,North,0,2.0,-999.0,85,0.00,,,0.00,,2016-12-10 18:22:00,
2016-12-10 10:28:00,31.9,27.0,30.14,NNE,23,1.0,-999.0,83,0.00,,,0.00,,2016-12-10 18:28:00,
2016-12-10 10:33:00,31.9,27.0,30.12,NNW,338,2.0,-999.0,83,0.00,,,0.00,,2016-12-10 18:33:00,
2016-12-10 10:41:00,31.9,27.0,30.13,NNE,23,2.0,-999.0,83,0.00,,,0.00,,2016-12-10 18:41:00,
2016-12-10 10:47:00,31.9,27.0,30.13,North,0,0.0,-999.0,83,0.00,,,0.00,,2016-12-10 18:47:00,
2016-12-10 10:52:00,31.9,27.0,30.12,NE,45,1.0,-999.0,83,0.00,,,0.00,,2016-12-10 18:52:00,
2016-12-10 10:58:00,31.9,27.0,30.13,NNW,338,2.0,-999.0,83,0.00,,,0.00,,2016-12-10 18:58:00,
2016-12-10 11:04:00,31.9,27.0,30.11,NW,315,0.0,-999.0,83,0.00,,,0.00,,2016-12-10 19:04:00,
2016-12-10 11:09:00,31.9,27.0,30.12,NW,315,1.0,-999.0,83,0.00,,,0.00,,2016-12-10 19:09:00,
2016-12-10 11:15:00,32.2,27.0,30.11,East,90,0.0,-999.0,83,0.00,,,0.00,,2016-12-10 19:15:00,
2016-12-10 11:20:00,32.4,27.0,30.11,NE,45,0.0,-999.0,83,0.00,,,0.00,,2016-12-10 19:20:00,
2016-12-10 11:26:00,32.4,27.0,30.12,WNW,293,2.0,-999.0,83,0.00,,,0.00,,2016-12-10 19:26:00,
2016-12-10 11:31:00,32.4,27.0,30.13,East,90,1.0,-999.0,83,0.00,,,0.00,,2016-12-10 19:31:00,
2016-12-10 11:37:00,32.4,27.0,30.12,NW,315,0.0,-999.0,83,0.00,,,0.00,,2016-12-10 19:37:00,
2016-12-10 11:43:00,32.4,27.0,30.12,NNE,23,2.0,-999.0,83,0.00,,,0.00,,2016-12-10 19:43:00,
2016-12-10 11:48:00,32.4,28.0,30.13,NNE,23,2.0,-999.0,83,0.00,,,0.00,,2016-12-10 19:48:00,
2016-12-10 11:53:00,32.5,28.0,30.09,NNE,23,2.0,-999.0,83,0.00,,,0.00,,2016-12-10 19:53:00,
2016-12-10 11:59:00,32.9,28.0,30.11,NE,45,0.0,-999.0,83,0.00,,,0.00,,2016-12-10 19:59:00,
2016-12-10 12:04:00,32.9,28.0,30.10,NE,45,2.0,-999.0,83,0.00,,,0.00,,2016-12-10 20:04:00,
2016-12-10 12:10:00,32.9,28.0,30.08,East,90,2.0,-999.0,83,0.00,,,0.00,,2016-12-10 20:10:00,
2016-12-10 12:15:00,33.0,28.0,30.08,ENE,68,1.0,-999.0,83,0.00,,,0.00,,2016-12-10 20:15:00,
2016-12-10 12:20:00,33.2,28.0,30.08,NNE,23,3.0,-999.0,83,0.00,,,0.00,,2016-12-10 20:20:00,
2016-12-10 12:26:00,33.2,28.0,30.08,NNW,338,2.0,-999.0,83,0.00,,,0.00,,2016-12-10 20:26:00,
2016-12-10 12:31:00,33.2,28.0,30.08,NNW,338,2.0,-999.0,83,0.00,,,0.00,,2016-12-10 20:31:00,
2016-12-10 12:37:00,33.0,28.0,30.08,ENE,68,3.0,-999.0,83,0.00,,,0.00,,2016-12-10 20:37:00,
2016-12-10 12:42:00,33.0,28.0,30.08,East,90,0.0,-999.0,83,0.00,,,0.00,,2016-12-10 20:42:00,
2016-12-10 12:47:00,33.4,29.0,30.06,NNW,338,2.0,-999.0,83,0.00,,,0.00,,2016-12-10 20:47:00,
2016-12-10 12:53:00,33.2,28.0,30.06,NNW,338,2.0,-999.0,83,0.00,,,0.00,,2016-12-10 20:53:00,
2016-12-10 12:58:00,33.2,28.0,30.06,ESE,113,2.0,-999.0,83,0.00,,,0.00,,2016-12-10 20:58:00,
2016-12-10 13:04:00,33.2,28.0,30.06,NE,45,2.0,-999.0,83,0.00,,,0.00,,2016-12-10 21:04:00,
2016-12-10 13:09:00,33.2,28.0,30.05,West,270,0.0,-999.0,83,0.00,,,0.00,,2016-12-10 21:09:00,
2016-12-10 13:14:00,33.4,29.0,30.05,North,0,3.0,-999.0,83,0.00,,,0.00,,2016-12-10 21:14:00,
2016-12-10 13:20:00,33.4,29.0,30.06,NE,45,1.0,-999.0,83,0.00,,,0.00,,2016-12-10 21:20:00,
2016-12-10 13:25:00,33.4,29.0,30.06,East,90,1.0,-999.0,83,0.00,,,0.00,,2016-12-10 21:25:00,
2016-12-10 13:31:00,33.4,29.0,30.07,WNW,293,1.0,-999.0,83,0.00,,,0.00,,2016-12-10 21:31:00,
2016-12-10 13:36:00,33.4,29.0,30.06,NNE,23,2.0,-999.0,83,0.00,,,0.00,,2016-12-10 21:36:00,
2016-12-10 13:41:00,33.4,29.0,30.06,NNE,23,2.0,-999.0,83,0.00,,,0.00,,2016-12-10 21:41:00,
2016-12-10 13:47:00,33.4,29.0,30.05,NNE,23,2.0,-999.0,85,0.00,,,0.00,,2016-12-10 21:47:00,
2016-12-10 13:52:00,33.5,29.0,30.05,NNE,23,1.0,-999.0,85,0.00,,,0.00,,2016-12-10 21:52:00,
2016-12-10 13:58:00,33.8,29.0,30.06,NNE,23,3.0,-999.0,85,0.00,,,0.00,,2016-12-10 21:58:00,
2016-12-10 14:03:00,33.8,29.0,30.05,SSE,158,0.0,-999.0,85,0.00,,,0.00,,2016-12-10 22:03:00,
2016-12-10 14:08:00,33.8,29.0,30.06,North,0,1.0,-999.0,85,0.00,,,0.00,,2016-12-10 22:08:00,
2016-12-10 14:14:00,33.5,29.0,30.05,NNE,23,2.0,-999.0,85,0.00,,,0.00,,2016-12-10 22:14:00,
2016-12-10 14:19:00,33.5,29.0,30.05,SE,135,1.0,-999.0,85,0.00,,,0.00,,2016-12-10 22:19:00,
2016-12-10 14:25:00,33.5,29.0,30.05,West,270,1.0,-999.0,85,0.00,,,0.00,,2016-12-10 22:25:00,
2016-12-10 14:30:00,33.5,29.0,30.05,North,0,2.0,-999.0,85,0.00,,,0.00,,2016-12-10 22:30:00,
2016-12-10 14:35:00,33.4,29.0,30.06,NNW,338,2.0,-999.0,85,0.00,,,0.00,,2016-12-10 22:35:00,
2016-12-10 14:41:00,33.4,29.0,30.05,North,0,3.0,-999.0,85,0.00,,,0.00,,2016-12-10 22:41:00,
2016-12-10 14:46:00,33.2,29.0,30.06,ENE,68,2.0,-999.0,85,0.00,,,0.00,,2016-12-10 22:46:00,
2016-12-10 14:52:00,33.2,29.0,30.06,North,0,2.0,-999.0,85,0.00,,,0.00,,2016-12-10 22:52:00,
2016-12-10 14:57:00,33.4,29.0,30.06,West,270,2.0,-999.0,85,0.00,,,0.00,,2016-12-10 22:57:00,
2016-12-10 15:03:00,33.4,29.0,30.06,East,90,0.0,-999.0,86,0.00,,,0.00,,2016-12-10 23:03:00,
2016-12-10 15:08:00,33.5,29.0,30.07,ENE,68,0.0,-999.0,86,0.00,,,0.00,,2016-12-10 23:08:00,
2016-12-10 15:14:00,33.8,30.0,30.06,NNE,23,2.0,-999.0,86,0.00,,,0.00,,2016-12-10 23:14:00,
2016-12-10 15:19:00,33.5,29.0,30.06,North,0,1.0,-999.0,86,0.00,,,0.00,,2016-12-10 23:19:00,
2016-12-10 15:25:00,33.5,29.0,30.06,NNW,338,2.0,-999.0,86,0.00,,,0.00,,2016-12-10 23:25:00,
2016-12-10 15:30:00,33.2,29.0,30.06,WSW,248,1.0,-999.0,86,0.00,,,0.00,,2016-12-10 23:30:00,
2016-12-10 15:35:00,33.0,29.0,30.06,NW,315,2.0,-999.0,86,0.00,,,0.00,,2016-12-10 23:35:00,
2016-12-10 15:40:00,33.0,29.0,30.06,NE,45,2.0,-999.0,86,0.00,,,0.00,,2016-12-10 23:40:00,
2016-12-10 15:46:00,33.0,29.0,30.05,NW,315,2.0,-999.0,86,0.00,,,0.00,,2016-12-10 23:46:00,
2016-12-10 15:51:00,32.9,29.0,30.06,NNE,23,1.0,-999.0,86,0.00,,,0.00,,2016-12-10 23:51:00,
2016-12-10 15:57:00,32.9,29.0,30.05,NE,45,2.0,-999.0,86,0.00,,,0.00,,2016-12-10 23:57:00,
2016-12-10 16:02:00,32.9,29.0,30.05,NW,315,1.0,-999.0,86,0.00,,,0.00,,2016-12-11 00:02:00,
2016-12-10 16:07:00,32.6,29.0,30.06,NNE,23,2.0,-999.0,86,0.00,,,0.00,,2016-12-11 00:07:00,
2016-12-10 16:13:00,32.6,29.0,30.06,North,0,3.0,-999.0,86,0.00,,,0.00,,2016-12-11 00:13:00,
2016-12-10 16:18:00,32.5,29.0,30.05,ESE,113,1.0,-999.0,86,0.00,,,0.00,,2016-12-11 00:18:00,
2016-12-10 16:24:00,32.5,29.0,30.06,North,0,4.0,-999.0,86,0.00,,,0.00,,2016-12-11 00:24:00,
2016-12-10 16:29:00,32.5,29.0,30.06,NW,315,3.0,-999.0,86,0.00,,,0.00,,2016-12-11 00:29:00,
2016-12-10 16:34:00,32.4,28.0,30.06,NNW,338,3.0,-999.0,86,0.00,,,0.00,,2016-12-11 00:34:00,
2016-12-10 16:40:00,32.4,28.0,30.06,NNW,338,3.0,-999.0,86,0.00,,,0.00,,2016-12-11 00:40:00,
2016-12-10 16:45:00,32.4,28.0,30.06,NW,315,1.0,-999.0,86,0.00,,,0.00,,2016-12-11 00:45:00,
2016-12-10 16:50:00,32.4,29.0,30.06,NNW,338,2.0,-999.0,88,0.00,,,0.00,,2016-12-11 00:50:00,
2016-12-10 16:56:00,32.4,29.0,30.06,North,0,2.0,-999.0,88,0.00,,,0.00,,2016-12-11 00:56:00,
2016-12-10 17:01:00,32.4,29.0,30.07,North,0,4.0,-999.0,88,0.00,,,0.00,,2016-12-11 01:01:00,
2016-12-10 17:07:00,32.4,29.0,30.06,NNW,338,3.0,-999.0,88,0.00,,,0.00,,2016-12-11 01:07:00,
2016-12-10 17:12:00,32.2,29.0,30.06,NW,315,1.0,-999.0,88,0.00,,,0.00,,2016-12-11 01:12:00,
2016-12-10 17:17:00,32.2,29.0,30.05,NE,45,3.0,-999.0,88,0.00,,,0.00,,2016-12-11 01:17:00,
2016-12-10 17:23:00,32.2,29.0,30.06,NW,315,2.0,-999.0,88,0.00,,,0.00,,2016-12-11 01:23:00,
2016-12-10 17:28:00,32.2,29.0,30.07,NW,315,4.0,-999.0,88,0.00,,,0.00,,2016-12-11 01:28:00,
2016-12-10 17:34:00,32.2,29.0,30.05,NE,45,2.0,-999.0,88,0.00,,,0.00,,2016-12-11 01:34:00,
2016-12-10 17:39:00,32.2,29.0,30.05,SE,135,1.0,-999.0,88,0.00,,,0.00,,2016-12-11 01:39:00,
2016-12-10 17:44:00,32.2,29.0,30.05,NNE,23,2.0,-999.0,88,0.00,,,0.00,,2016-12-11 01:44:00,
2016-12-10 17:50:00,32.2,29.0,30.05,NNW,338,4.0,-999.0,88,0.00,,,0.00,,2016-12-11 01:50:00,
2016-12-10 17:55:00,32.2,29.0,30.05,NNW,338,2.0,-999.0,88,0.01,,,0.01,,2016-12-11 01:55:00,
2016-12-10 18:01:00,32.4,29.0,30.05,NE,45,3.0,-999.0,88,0.00,,,0.01,,2016-12-11 02:01:00,
2016-12-10 18:06:00,32.4,29.0,30.04,NNW,338,2.0,-999.0,88,0.00,,,0.01,,2016-12-11 02:06:00,
2016-12-10 18:11:00,32.4,29.0,30.04,North,0,2.0,-999.0,88,0.00,,,0.01,,2016-12-11 02:11:00,
2016-12-10 18:17:00,32.4,29.0,30.04,NW,315,2.0,-999.0,88,0.00,,,0.01,,2016-12-11 02:17:00,
2016-12-10 18:22:00,32.4,29.0,30.05,NNE,23,2.0,-999.0,88,0.00,,,0.01,,2016-12-11 02:22:00,
2016-12-10 18:28:00,32.2,29.0,30.05,NNW,338,5.0,-999.0,88,0.00,,,0.01,,2016-12-11 02:28:00,
2016-12-10 18:33:00,32.2,29.0,30.05,NNW,338,2.0,-999.0,88,0.00,,,0.01,,2016-12-11 02:33:00,
2016-12-10 18:38:00,31.9,29.0,30.05,NNE,23,3.0,-999.0,88,0.00,,,0.01,,2016-12-11 02:38:00,
2016-12-10 18:44:00,31.9,29.0,30.05,NW,315,3.0,-999.0,88,0.00,,,0.01,,2016-12-11 02:44:00,
2016-12-10 18:49:00,31.9,29.0,30.05,NNE,23,2.0,-999.0,88,0.00,,,0.01,,2016-12-11 02:49:00,
2016-12-10 18:55:00,31.9,29.0,30.06,NNE,23,3.0,-999.0,88,0.00,,,0.01,,2016-12-11 02:55:00,
2016-12-10 19:00:00,31.9,29.0,30.05,NNE,23,3.0,-999.0,88,0.00,,,0.00,,2016-12-11 03:00:00,
2016-12-10 19:05:00,31.9,29.0,30.05,NNE,23,2.0,-999.0,88,0.00,,,0.00,,2016-12-11 03:05:00,
2016-12-10 19:11:00,31.9,29.0,30.06,NNW,338,2.0,-999.0,88,0.00,,,0.00,,2016-12-11 03:11:00,
2016-12-10 19:16:00,31.9,29.0,30.05,NE,45,3.0,-999.0,88,0.00,,,0.00,,2016-12-11 03:16:00,
2016-12-10 19:22:00,31.9,29.0,30.05,NNW,338,2.0,-999.0,88,0.00,,,0.00,,2016-12-11 03:22:00,
2016-12-10 19:27:00,31.9,29.0,30.06,NNE,23,2.0,-999.0,88,0.00,,,0.00,,2016-12-11 03:27:00,
2016-12-10 19:32:00,31.9,29.0,30.06,NNE,23,2.0,-999.0,88,0.01,,,0.01,,2016-12-11 03:32:00,
2016-12-10 19:38:00,31.9,29.0,30.06,NNE,23,4.0,-999.0,88,0.01,,,0.01,,2016-12-11 03:38:00,
2016-12-10 19:43:00,31.7,29.0,30.05,ENE,68,3.0,-999.0,90,0.01,,,0.01,,2016-12-11 03:43:00,
2016-12-10 19:54:00,31.7,29.0,30.06,NNE,23,2.0,-999.0,90,0.01,,,0.01,,2016-12-11 03:54:00,
2016-12-10 19:59:00,31.7,29.0,30.06,NNE,23,2.0,-999.0,90,0.00,,,0.01,,2016-12-11 03:59:00,
2016-12-10 20:05:00,31.7,29.0,30.06,NE,45,0.0,-999.0,90,0.00,,,0.00,,2016-12-11 04:05:00,
2016-12-10 20:10:00,31.7,29.0,30.06,NNE,23,2.0,-999.0,90,0.00,,,0.00,,2016-12-11 04:10:00,
2016-12-10 20:15:00,31.7,29.0,30.06,ESE,113,1.0,-999.0,90,0.00,,,0.00,,2016-12-11 04:15:00,
2016-12-10 20:21:00,31.9,29.0,30.05,NE,45,1.0,-999.0,91,0.00,,,0.00,,2016-12-11 04:21:00,
2016-12-10 20:26:00,31.9,29.0,30.06,NNE,23,2.0,-999.0,91,0.00,,,0.00,,2016-12-11 04:26:00,
2016-12-10 20:32:00,31.9,29.0,30.06,NNE,23,0.0,-999.0,91,0.00,,,0.00,,2016-12-11 04:32:00,
2016-12-10 20:37:00,32.2,29.0,30.05,North,0,2.0,-999.0,91,0.00,,,0.00,,2016-12-11 04:37:00,
2016-12-10 20:42:00,32.2,29.0,30.06,NNE,23,2.0,-999.0,91,0.00,,,0.00,,2016-12-11 04:42:00,
2016-12-10 20:48:00,32.2,29.0,30.06,West,270,1.0,-999.0,91,0.00,,,0.00,,2016-12-11 04:48:00,
2016-12-10 20:53:00,32.2,29.0,30.06,NNE,23,2.0,-999.0,91,0.00,,,0.00,,2016-12-11 04:53:00,
2016-12-10 20:59:00,32.2,29.0,30.06,West,270,1.0,-999.0,91,0.00,,,0.00,,2016-12-11 04:59:00,
2016-12-10 21:04:00,32.2,29.0,30.06,NNW,338,2.0,-999.0,91,0.00,,,0.00,,2016-12-11 05:04:00,
2016-12-10 21:09:00,32.2,29.0,30.07,NNW,338,2.0,-999.0,91,0.00,,,0.00,,2016-12-11 05:09:00,
2016-12-10 21:15:00,32.2,29.0,30.07,NNW,338,3.0,-999.0,91,0.00,,,0.00,,2016-12-11 05:15:00,
2016-12-10 21:20:00,32.2,29.0,30.07,ENE,68,2.0,-999.0,91,0.00,,,0.00,,2016-12-11 05:20:00,
2016-12-10 21:25:00,32.2,29.0,30.07,NNW,338,2.0,-999.0,91,0.00,,,0.00,,2016-12-11 05:25:00,
2016-12-10 21:30:00,32.2,29.0,30.08,NE,45,3.0,-999.0,91,0.00,,,0.00,,2016-12-11 05:30:00,
2016-12-10 21:36:00,32.2,29.0,30.07,ENE,68,2.0,-999.0,91,0.00,,,0.00,,2016-12-11 05:36:00,
2016-12-10 21:41:00,32.2,29.0,30.08,NNW,338,2.0,-999.0,91,0.00,,,0.00,,2016-12-11 05:41:00,
2016-12-10 21:47:00,32.2,29.0,30.08,NNW,338,2.0,-999.0,91,0.00,,,0.00,,2016-12-11 05:47:00,
2016-12-10 21:52:00,32.2,29.0,30.08,NNW,338,2.0,-999.0,91,0.00,,,0.00,,2016-12-11 05:52:00,
2016-12-10 21:57:00,32.2,29.0,30.09,NNW,338,0.0,-999.0,91,0.00,,,0.00,,2016-12-11 05:57:00,
2016-12-10 22:03:00,32.2,29.0,30.08,NE,45,3.0,-999.0,91,0.00,,,0.00,,2016-12-11 06:03:00,
2016-12-10 22:08:00,32.2,29.0,30.08,ENE,68,0.0,-999.0,91,0.00,,,0.00,,2016-12-11 06:08:00,
2016-12-10 22:14:00,32.2,29.0,30.08,NE,45,1.0,-999.0,91,0.00,,,0.00,,2016-12-11 06:14:00,
2016-12-10 22:20:00,32.2,30.0,30.08,NNW,338,0.0,-999.0,91,0.00,,,0.00,,2016-12-11 06:20:00,
2016-12-10 22:25:00,32.2,30.0,30.08,NE,45,0.0,-999.0,91,0.01,,,0.01,,2016-12-11 06:25:00,
2016-12-10 22:30:00,32.2,30.0,30.08,NNE,23,0.0,-999.0,91,0.01,,,0.01,,2016-12-11 06:30:00,
2016-12-10 22:36:00,32.2,30.0,30.08,NE,45,2.0,-999.0,91,0.01,,,0.01,,2016-12-11 06:36:00,
2016-12-10 22:41:00,32.2,30.0,30.08,ENE,68,1.0,-999.0,91,0.01,,,0.01,,2016-12-11 06:41:00,
2016-12-10 22:47:00,32.2,30.0,30.09,ENE,68,0.0,-999.0,91,0.01,,,0.01,,2016-12-11 06:47:00,
2016-12-10 22:52:00,32.2,30.0,30.08,NE,45,2.0,-999.0,91,0.01,,,0.01,,2016-12-11 06:52:00,
2016-12-10 22:57:00,32.2,30.0,30.08,NE,45,0.0,-999.0,91,0.01,,,0.01,,2016-12-11 06:57:00,
2016-12-10 23:03:00,32.2,30.0,30.08,NNE,23,0.0,-999.0,91,0.00,,,0.01,,2016-12-11 07:03:00,
2016-12-10 23:08:00,32.2,30.0,30.08,NNE,23,1.0,-999.0,91,0.00,,,0.01,,2016-12-11 07:08:00,